Погода в Килларней

Ирландия     52°03′36″N   9°30′21″W
темп.,
°C
ветер,
м/с
пор.,
м/с
влажн.,
%
обл.,
%
осадки,
мм/ч
давл.,
гПа
погр.,
м
25 февраля, чт
чт2500:00+4юз379129 0.0 1019215
03:00+3зюз39900 0.0 1021295
06:00+2зюз23897 0.1 102469
09:00+4зюз28880 0.0 1026411
12:00+8зсз47660 0.1 10291353
15:00+8з466326 0.1 10301315
18:00+5юз238519 0.2 103146
21:00+3ю22930 0.0 103329
26 февраля, пт
пт2600:00+3ю239425 0.0 103340
03:00+3ююв229660 0.0 103339
06:00+3ююв239650 0.0 103349
09:00+6ююв369570 0.1 1033373
12:00+9ююз7117450 0.1 10331221
15:00+9ююз7127447 0.1 10321143
18:00+7ю4108273 0.1 1032978
21:00+7ююв2497100 1.6 1034217
27 февраля, сб
сб2700:00+5юз129889 1.8 103522
03:00+4з11966 0.0 103622
06:00+3в11963 0.0 103722
09:00+6вюв11920 0.0 103837
12:00+10вюв01680 0.0 1039628
15:00+12всв01560 0.0 10381050
18:00+7ю01800 0.0 103822
21:00+4ю11900 0.0 103822
28 февраля, вс
вс2800:00+4ююв11910 0.0 103822
03:00+3ююв11900 0.0 103722
06:00+2юв118917 0.0 103622
09:00+5юв11842 0.0 103657
12:00+10юв126516 0.0 1035594
15:00+10юв33640 0.0 1033898
18:00+6юв22880 0.0 103230
21:00+3юв22950 0.0 103325
1 марта, пн
пн100:00+2вюв12940 0.0 103322
03:00+2вюв22957 0.0 103027
06:00+4вюв139449 0.0 1029138
09:00+5вюв2487100 0.0 1029425
12:00+7вюв358298 0.0 1028698
15:00+7вюв3577100 0.1 1026822
18:00+5вюв238999 0.1 1025113
21:00+4вюв259590 0.0 1025363